SITRO-AIS 8 (ANOKHIN)

Last updated on Sat Aug 15 2026 00:03:45 GMT+0000 (Coordinated Universal Time)

1 57193U 23091AD 26226.57711589 .00007871 00000+0 24507-3 0 9994 2 57193 97.5012 292.9059 0008492 243.6298 116.4073 15.33532311173396
UTC large
Height (km)
Speed (km/s)
/
Latitude / Longitude
Inclination (degrees)
Orbital Period (minutes)
Azimuth
Elevation
Range (km)
Doppler Factor

Next 0 passes for location: London (51.5072 / 0.1276)

No passes found over London.
SITRO-AIS 8 (ANOKHIN)